sat.trackr.live / text

‹ back to catalog

STARLINK-33741

NORAD 63365 · 2025-063C

PAYLOAD ACTIVE UNKNOWN

§ Identity

Operator
Country
US
Launch date
2025-03-26
Launch site
AFWTR
Launch vehicle
Mass (kg)
RCS (m²)

Purposes: comms

External: N2YO · Heavens-Above · Gunter

§ Orbital elements

Epoch: 2026-09-20T14:41:45.445920Z

Period
93.85 min
Inclination
53.1613°
Eccentricity
0.0001276
Mean motion
15.34409522 rev/d
Perigee alt
461.8 km
Apogee alt
463.5 km
Semi-major
6,840.8 km
B*
6.4570e-4
RAAN
221.3418°
Arg perigee
78.6826°
Mean anomaly
281.4320°
Rev number
8,468

§ Raw data

STARLINK-337411 63365U 25063C   26263.61233155  .00021509  00000+0  64570-3 0  99952 63365  53.1613 221.3418 0001276  78.6826 281.4320 15.34409522 84689

JSON: /api/v1/satellites/63365 · /tle

For live sub-satellite position, see the globe view (requires WebGL).

§ Visibility from observer

Set your observer location to see the next 7 days of passes ≥ 10°. The values pass through the URL so the page stays shareable.

No JS? Fill the form by hand. The geolocation button needs JavaScript.